Weather History for FENTRESS NALF, VA

Change the Weather History Date:

Tuesday, February 4, 2014

  Actual Average (KORF) Record (KORF)
Temperature  
Mean Temperature 41 °F 41 °F  
Max Temperature 43 °F 49 °F 82 °F (1890)
Min Temperature 39 °F 33 °F 11 °F (1886)
Degree Days  
Heating Degree Days 24 24  
Month to date heating degree days 96  
Since 1 July heating degree days 2038  
Cooling Degree Days 0 0  
Month to date cooling degree days 0  
Year to date cooling degree days 0  
Moisture  
Dew Point 34 °F    
Average Humidity 77    
Maximum Humidity 87    
Minimum Humidity 67    
Precipitation  
Precipitation 0.13 in 0.12 in 4.75 in (1998)
Month to date precipitation 0.45  
Year to date precipitation 3.85  
Snow  
Snow 0.00 in 0.10 in 6.10 in (1996)
Month to date snowfall 0.3  
Since 1 July snowfall 3.9  
Snow Depth -    
Sea Level Pressure  
Sea Level Pressure 30.30 in    
Wind  
Wind Speed 9 mph (NNE)    
Max Wind Speed 13 mph    
Max Gust Speed -    
Visibility 6 miles    
Events Rain    
T = Trace of Precipitation, MM = Missing Value Source: NWS Daily Summary

Daily Weather History Graph

Daily Weather History Graph

Search for Another Location

Airport:

Trip Planner

Search our weather history database for the weather conditions in past years. The results will help you decide how hot, cold, wet, or windy it might be!

Date:

Astronomy

Feb. 04, 2014 Rise Set
Actual Time 7:03 AM EST 5:33 PM EST
Civil Twilight 6:36 AM EST 6:00 PM EST
Nautical Twilight 6:06 AM EST 6:31 PM EST
Astronomical Twilight 5:35 AM EST 7:01 PM EST
Moon 9:50 AM EST (2/4) 11:14 PM EST (2/4)
Length of Visible Light 11h 23m
Length of Day
10h 29m
Waxing Crescent, 29% of the Moon is Illuminated
Feb 4
Waxing Crescent
Feb 6
First Quarter
Feb 14
Full
Feb 22
Last Quarter
Mar 1
New

Hourly Weather History & Observations

Time (EST) Temp. Windchill Dew Point Humidity Pressure Visibility Wind Dir Wind Speed Gust Speed Precip Events Conditions
12:56 AM 39.9 °F 32.9 °F 33.1 °F 77% 30.32 in 9.0 mi NNE 11.5 mph - N/A   Overcast
1:56 AM 39.9 °F 33.4 °F 33.1 °F 77% 30.32 in 10.0 mi North 10.4 mph - N/A   Overcast
2:56 AM 39.9 °F 34.5 °F 33.1 °F 77% 30.32 in 10.0 mi NNE 8.1 mph - N/A   Overcast
3:56 AM 39.9 °F 34.5 °F 33.1 °F 77% 30.34 in 9.0 mi NNE 8.1 mph - N/A   Overcast
4:56 AM 39.9 °F 36.7 °F 32.0 °F 73% 30.36 in 9.0 mi NNE 4.6 mph - N/A   Overcast
5:56 AM 39.0 °F 33.4 °F 33.1 °F 79% 30.37 in 7.0 mi NNE 8.1 mph - N/A   Overcast
6:56 AM 39.0 °F 34.8 °F 32.0 °F 76% 30.38 in 6.0 mi North 5.8 mph - N/A   Haze
7:56 AM 39.0 °F 33.4 °F 32.0 °F 76% 30.39 in 4.0 mi North 8.1 mph - N/A   Haze
8:56 AM 39.0 °F 32.8 °F 32.0 °F 76% 30.42 in 4.0 mi North 9.2 mph - N/A   Haze
9:56 AM 39.9 °F 34.5 °F 33.1 °F 77% 30.43 in 5.0 mi North 8.1 mph - N/A   Haze
10:56 AM 41.0 °F 35.2 °F 33.1 °F 73% 30.42 in 6.0 mi North 9.2 mph - N/A   Haze
11:44 AM 41.0 °F 34.7 °F 33.1 °F 73% 30.41 in 6.0 mi North 10.4 mph - N/A   Haze
11:56 AM 42.1 °F 36.6 °F 33.1 °F 70% 30.42 in 6.0 mi North 9.2 mph - N/A   Haze
12:56 PM 42.1 °F 36.1 °F 32.0 °F 67% 30.38 in 6.0 mi North 10.4 mph - N/A   Haze
1:56 PM 43.0 °F 36.8 °F 33.1 °F 68% 30.34 in 7.0 mi North 11.5 mph - N/A   Overcast
2:21 PM 43.0 °F 36.4 °F 33.1 °F 68% 30.31 in 8.0 mi North 12.7 mph - N/A   Overcast
2:43 PM 43.0 °F 37.2 °F 33.1 °F 68% 30.32 in 8.0 mi North 10.4 mph - N/A   Overcast
2:56 PM 43.0 °F 37.2 °F 33.1 °F 68% 30.32 in 9.0 mi NE 10.4 mph - N/A   Overcast
3:56 PM 42.1 °F 37.7 °F 33.1 °F 70% 30.33 in 6.0 mi North 6.9 mph - N/A   Haze
4:56 PM 41.0 °F 36.4 °F 33.1 °F 73% 30.32 in 6.0 mi NE 6.9 mph - N/A   Haze
5:33 PM 41.0 °F 35.2 °F 34.0 °F 76% 30.31 in 5.0 mi NNE 9.2 mph - N/A   Haze
5:56 PM 39.9 °F 33.4 °F 34.0 °F 79% 30.30 in 4.0 mi NNE 10.4 mph - N/A   Haze
6:56 PM 39.9 °F 34.5 °F 34.0 °F 79% 30.27 in 4.0 mi NE 8.1 mph - 0.00 in Rain Light Rain
7:54 PM 39.2 °F 33.6 °F 35.6 °F 87% 30.24 in 4.0 mi NNE 8.1 mph - 0.01 in Rain Light Rain
7:56 PM 39.9 °F 33.9 °F 35.1 °F 83% 30.25 in 4.0 mi NNE 9.2 mph - 0.01 in Rain Light Rain
8:56 PM 42.1 °F 36.6 °F 37.0 °F 82% 30.22 in 2.5 mi NNE 9.2 mph - 0.03 in Rain Light Rain
9:08 PM 42.1 °F 36.1 °F 37.0 °F 82% 30.22 in 3.0 mi NNE 10.4 mph - 0.00 in Rain Light Rain
9:47 PM 42.1 °F 36.6 °F 37.0 °F 82% 30.19 in 2.5 mi NNE 9.2 mph - 0.04 in Rain Light Rain
9:56 PM 42.1 °F 36.1 °F 37.0 °F 82% 30.18 in 2.5 mi NNE 10.4 mph - 0.06 in Rain Rain
10:05 PM 42.1 °F 36.1 °F 37.0 °F 82% 30.17 in 4.0 mi NNE 10.4 mph - 0.00 in Rain Light Rain
10:56 PM 42.1 °F 38.4 °F 37.9 °F 85% 30.15 in 2.5 mi NNE 5.8 mph - 0.01 in Rain Light Rain
11:07 PM 42.1 °F 39.2 °F 37.9 °F 85% 30.14 in 3.0 mi NNE 4.6 mph - 0.00 in   Overcast
11:56 PM 43.0 °F 40.3 °F 39.0 °F 86% 30.09 in 3.0 mi North 4.6 mph - 0.02 in Rain Light Rain